Location: Maynard F. Jordan Observatory
(44.9000°N, 68.6700°W)
Time: 06:08:15
(UTC-05:00)

Cosmos 2297 Rocket - Visible Passes

Search period start: 03 March 2015 00:00
Search period end: 13 March 2015 01:00
Orbit: 840 x 844 km, 71.0° (Epoch: 01 March)

Date Brightness Start Highest point End Pass type
(mag) Time Alt. Az. Time Alt. Az. Time Alt. Az.
03 Mar 4.1 02:48:59 21° N 02:48:59 21° N 02:51:01 10° NNE visible
04 Mar 4.3 02:34:15 19° N 02:34:15 19° N 02:36:00 10° NNE visible
05 Mar 4.4 02:19:30 18° N 02:19:30 18° N 02:20:59 10° NNE visible
06 Mar 4.6 02:04:44 16° N 02:04:44 16° N 02:05:57 10° NNE visible
07 Mar 4.7 01:49:56 15° N 01:49:56 15° N 01:50:56 10° NNE visible
08 Mar 4.8 01:35:07 14° NNE 01:35:07 14° NNE 01:35:54 10° NNE visible
08 Mar 4.6 04:16:55 10° NNW 04:16:55 10° NNW 04:17:07 10° NNW visible
09 Mar 4.9 02:20:17 13° NNE 02:20:17 13° NNE 02:20:53 10° NNE visible
09 Mar 4.6 04:02:05 10° NNW 04:02:05 10° NNW 04:02:23 10° NNW visible
10 Mar 5.0 02:05:26 12° NNE 02:05:26 12° NNE 02:05:51 10° NNE visible
10 Mar 4.7 03:47:13 10° NNW 03:47:13 10° NNW 03:47:35 10° NNW visible
11 Mar 5.1 01:50:33 11° NNE 01:50:33 11° NNE 01:50:49 10° NNE visible
11 Mar 4.7 03:32:21 11° NNW 03:32:21 11° NNW 03:32:44 10° NNW visible
12 Mar 5.1 01:35:40 11° NNE 01:35:40 11° NNE 01:35:47 10° NNE visible
12 Mar 4.8 03:17:28 11° NNW 03:17:28 11° NNW 03:17:50 10° NNW visible
